Regional Weather Roundup
Issued by NWS

Home | Current Version | Previous Version | Graphics & Text | Print | Product List | Glossary On
Versions: 1 2 3 4 5 6 7 8 9 10 11 12 13 14 15 16 17 18 19 20 21 22 23 24 25 26 27 28 29 30 31 32 33 34 35 36 37 38 39 40 41 42 43 44 45 46 47 48 49 50
000
ASUS43 KMPX 221510
RWRMN
WEATHER ROUNDUP FOR MINNESOTA
NATIONAL WEATHER SERVICE TWIN CITIES/CHANHASSEN MN
1000 AM CDT FRI JUL 22 2016


NOTE: "FAIR" INDICATES FEW OR NO CLOUDS BELOW 12,000 FEET WITH NO
SIGNIFICANT WEATHER AND/OR OBSTRUCTIONS TO VISIBILITY. N/A MEANS
CURRENT SKY AND/OR WEATHER CONDITIONS ARE NOT AVAILABLE.

MNZ060>063-068>070-221600-
   Twin Cities Metro

CITY           SKY/WX    TMP DP  RH WIND       PRES   REMARKS
TWIN CITIES    MOSUNNY   85  64  49 VRB7      30.01F
ST PAUL        SUNNY     84  68  58 CALM      30.01F
CRYSTAL        SUNNY     84  62  47 E5        30.01S
BLAINE         SUNNY     84  64  51 E8        30.02S
LAKEVILLE      SUNNY     81  68  65 NE6       30.02S
EDEN PRAIRIE   SUNNY     86  66  51 NE7       30.01F
LAKEVILLE      SUNNY     81  68  65 NE6       30.02S
SOUTH ST PAUL  SUNNY     82  65  55 E5        30.01F
LAKE ELMO      FAIR      81  68  65 CALM      30.03S
$$
MNZ001>005-007-008-013>017-022>024-027-028-221600-
   Northwest Minnesota

CITY           SKY/WX    TMP DP  RH WIND       PRES   REMARKS
BEMIDJI        SUNNY     81  68  65 W12       30.02S
HALLOCK        SUNNY     75  63  64 NW6       30.01R
ROSEAU         SUNNY     75  66  73 W6        30.01R
WARROAD        SUNNY     75  68  78 SW7       30.01R
THIEF RVR FALL SUNNY     77  66  68 W5        30.03S
CROOKSTON      SUNNY     79  64  61 N7        30.02R
FOSSTON        SUNNY     79  66  65 CALM      30.04R
DETROIT LAKES  SUNNY     81  64  57 CALM      30.06R
MOORHEAD       SUNNY     81  68  65 CALM      30.03S
PARK RAPIDS    SUNNY     83  67  58 W6        30.04S
MAHNOMEN       FAIR      79  70  74 SW6       30.03S
$$
MNZ006-009>011-018-025>026-221600-
   North Central Minnesota

CITY           SKY/WX    TMP DP  RH WIND       PRES   REMARKS
BAUDETTE       SUNNY     78  61  55 NW10      29.99R
FLAG ISLAND    SUNNY     75  57  53 W8        29.97R
INTL FALLS     SUNNY     76  63  64 W8        29.98R
WASKISH        SUNNY     77  68  73 W5        30.01R
BIG FORK       SUNNY     81  66  61 W5        30.01S
GRAND RAPIDS   SUNNY     80  67  64 W8        30.04S
CRANE LAKE     SUNNY     75  63  64 W6        29.99R
ORR            SUNNY     77  63  61 CALM      29.97S
COOK           MOSUNNY   79  64  61 W10G16    30.00S
WALKER         FAIR      81  67  63 SW9       30.03S
$$
MNZ012-019>021-037-221600-
   Northeast Minnesota

CITY           SKY/WX    TMP DP  RH WIND       PRES   REMARKS
DULUTH         MOSUNNY   82  63  52 W10       30.00F
ELY            SUNNY     77  63  61 W15G23    29.98F
HIBBING        SUNNY     79  65  62 W10G18    30.01S
EVELETH        SUNNY     81  65  58 W12       30.01S
DULUTH HARBOR  SUNNY     82  70  65 S6        29.97F
TWO HARBORS    SUNNY     84  70  61 W7        29.96F
SILVER BAY     SUNNY     82  64  54 W5        29.96S
GRAND MARAIS     N/A     62  55  77 W10       29.91F
G MARAIS ARPRT SUNNY     77  59  53 W12G18    29.98F
$$
MNZ029>031-032-039>041-046>048-054>057-064-221600-
   West Central Minnesota

CITY           SKY/WX    TMP DP  RH WIND       PRES   REMARKS
FERGUS FALLS   SUNNY     82  66  57 S3        30.04R
WHEATON        SUNNY     82  75  78 SE6       30.03S
MORRIS         SUNNY     84  70  61 E3        30.02S
ALEXANDRIA     SUNNY     82  65  56 VRB3      30.06R
ELBOW LAKE     FAIR      82  69  66 SE3       30.04S
GLENWOOD       SUNNY     82  70  65 E3        30.05R
APPLETON       SUNNY     82  70  65 SE7       30.01F
BENSON         SUNNY     82  66  57 SE5       30.03R
ORTONVILLE     SUNNY     81  72  74 SE3       30.03R
MADISON        SUNNY     81  68  65 E7        30.02S
WILLMAR        FAIR      84  70  61 SE6       30.04R
$$
MNZ033>034-036-042>043-049>051-058-059-221600-
   Central Minnesota

CITY           SKY/WX    TMP DP  RH WIND       PRES   REMARKS
ST CLOUD       SUNNY     80  69  69 SE7       30.02F
SAUK CENTRE    FAIR      80  67  65 CALM      30.05R
PAYNESVILLE    SUNNY     80  66  61 SE5       30.04S
AITKIN         SUNNY     84  64  51 CALM      30.02R
BRAINERD       SUNNY     79  66  64 W6        30.04R
STAPLES        SUNNY     79  64  61 SW5       30.04S
LONG PRAIRIE   FAIR      79  64  61 SE3       30.05S
LITTLE FALLS   SUNNY     79  64  61 CALM      30.04S
LITCHFIELD     SUNNY     82  70  65 SE8       30.02F
BUFFALO        SUNNY     82  63  51 E7        30.03F
MAPLE LAKE     SUNNY     83  68  61 SE6       30.04S
HUTCHINSON     SUNNY     82  69  64 E8        30.03S
$$
MNZ037-044-045-052-053-221600-
   East Central Minnesota

CITY           SKY/WX    TMP DP  RH WIND       PRES   REMARKS
PRINCETON      SUNNY     84  66  54 E7        30.03S
MORA           SUNNY     77  63  61 S3        30.04S
CAMBRIDGE      SUNNY     82  66  57 SE5       30.01S
RUSH CITY      SUNNY     79  67  66 CALM      30.03S
MOOSE LAKE     SUNNY     81  64  57 SW3       30.00S
HINCKLEY       FAIR      79  68  69 S3        30.02S
CLOQUET        SUNNY     82  61  47 W7        30.01S
MCGREGOR       SUNNY     81  64  57 W6        30.02S
$$
MNZ071>073-080-081-089-090-097-098-221600-
   Southwest Minnesota

CITY           SKY/WX    TMP DP  RH WIND       PRES   REMARKS
MONTEVIDEO     SUNNY     84  72  65 SE7       30.04R
GRANITE FALLS  SUNNY     84  71  64 E6        30.03S
CANBY          SUNNY     82  70  68 NE5       30.03F
MARSHALL       SUNNY     81  70  69 E8        30.02S
REDWOOD FALLS  SUNNY     82  69  64 E8        30.01S
OLIVIA         SUNNY     81  68  65 E9        30.01S
PIPESTONE      PTSUNNY   81  75  83 NE6       30.03R
WINDOM         PTSUNNY   82  75  78 N12       30.02R
WORTHINGTON    CLOUDY    83  79  88 NE7       30.02R HX  94
JACKSON        CLOUDY    82  77  83 E3        30.01R HAZE    HX  91
TRACY          CLOUDY    80  73  79 NE7       30.03S
SLAYTON        CLOUDY    79  74  86 N10       30.04R
$$
MNZ065>067-074>077-082>085-091>093-221600-
   South Central Minnesota

CITY           SKY/WX    TMP DP  RH WIND       PRES   REMARKS
MANKATO        PTSUNNY   82  73  74 NE10      30.01S
NEW ULM        SUNNY     81  72  74 E13       30.01S
ST JAMES       CLOUDY    75  73  94 NE7       30.01S
FAIRMONT         N/A    N/A N/A N/A MISG        N/A
GLENCOE        SUNNY     84  70  61 E8        30.01F
FARIBAULT      PTSUNNY   84  75  74 E7        30.02S HX  92
OWATONNA       PTSUNNY   81  75  83 E3        30.02R
WASECA         CLOUDY    79  77  94 NE6       30.03S FOG
ALBERT LEA     SUNNY     81  75  83 S9        30.00S
$$
MNZ078>079-086>088-094>096-221600-
   Southeast Minnesota

CITY           SKY/WX    TMP DP  RH WIND       PRES   REMARKS
ROCHESTER      MOSUNNY   82  75  79 VRB3      30.03R
RED WING       SUNNY     84  72  65 CALM      29.99F
STANTON        SUNNY     84  73  70 NE5       30.00S HX  91
DODGE CENTER   MOSUNNY   84  75  74 CALM      30.03R HX  92
WINONA         CLOUDY    79  73  83 CALM      30.00S
AUSTIN         SUNNY     81  73  78 S5        30.01S
PRESTON        PTSUNNY   78  72  80 SW3       30.04R
$$
ABBREVIATIONS USED IN REMARKS
   TC - TEMPERATURES IN CELSIUS
  WCI - WIND CHILL INDEX
   HX - HEAT INDEX
  VSB - VISIBILITY
$$




USA.gov is the U.S. government's official web portal to all federal, state and local government web resources and services.